Theta_e
321 325 324 326 330 329 327 328 329 331 337 340 336 338 348 354 358 359 348 347 346 348 347 341 334 332 332 333 334 335 336 339 339 338 337 336 340 340 341 341 340 343 344 340 336 338 339 336 335
320 324 324 328 328 327 328 329 329 332 341 340 341 343 342 357 352 351 349 347 347 348 347 346 336 333 333 333 333 332 334 338 339 338 338 342 343 341 341 340 340 340 339 338 338 338 338 337 336
320 323 326 329 328 328 327 329 328 337 341 342 343 344 348 357 353 351 348 347 346 346 348 346 339 335 334 333 334 333 332 334 337 340 341 340 339 338 338 340 340 339 337 337 339 342 341 338 337
321 326 326 325 325 327 328 328 328 338 339 340 340 349 354 350 352 349 348 348 347 347 347 341 339 339 336 335 335 335 335 334 333 334 335 335 336 337 337 337 337 337 338 339 341 341 339 336 335
320 325 326 326 327 327 329 328 329 337 336 338 339 349 356 347 350 349 348 347 347 347 346 345 341 341 339 338 338 337 338 338 337 337 336 336 337 337 337 338 338 338 338 339 340 340 340 338 336
322 324 325 325 325 326 328 328 330 334 337 338 337 345 353 347 350 349 348 347 347 347 346 344 342 342 341 341 340 340 340 340 341 341 342 342 342 341 341 340 340 339 339 339 339 340 340 341 340
321 323 325 325 325 326 327 327 329 335 337 338 337 343 350 347 347 346 346 346 346 346 345 345 343 340 339 340 340 340 339 339 339 340 342 342 342 342 342 341 342 342 342 341 340 339 339 338 338
322 323 323 323 324 324 327 327 329 334 335 336 339 342 348 347 344 345 345 346 346 347 346 346 343 342 338 337 338 338 338 338 338 338 339 339 339 338 338 337 338 339 338 338 338 338 338 339 339
321 321 322 322 323 324 326 326 328 332 336 338 338 340 346 344 343 345 346 346 347 346 345 343 342 341 340 337 336 335 336 336 337 337 338 339 339 337 336 336 336 337 337 337 336 336 335 334 334
321 321 322 323 323 323 325 325 327 330 335 336 337 342 346 343 344 346 345 345 344 345 346 343 341 340 339 337 336 335 335 335 335 336 337 336 335 334 332 331 331 331 332 332 331 331 331 334 337
321 321 322 322 320 321 322 324 325 329 330 332 337 343 344 345 344 344 341 340 341 342 343 344 338 338 338 335 334 333 333 331 331 332 333 334 333 332 331 330 329 329 327 329 329 331 332 332 332
320 320 321 320 320 319 320 322 324 327 328 329 331 338 342 345 345 343 341 339 338 338 340 341 341 340 337 333 330 329 328 327 326 324 326 329 329 327 326 325 324 323 322 322 323 325 325 325 327
320 320 320 320 320 320 320 321 322 324 327 328 330 338 341 342 343 342 340 337 334 334 333 334 334 332 330 327 325 324 323 322 321 319 318 320 320 319 319 318 317 316 315 315 315 316 316 317 319
320 320 320 320 320 320 320 320 321 322 324 325 326 334 338 340 340 340 338 334 332 330 330 329 327 326 325 324 323 321 319 317 316 314 313 313 314 314 314 313 312 311 310 311 311 312 312 313 315
318 318 318 319 319 319 319 320 320 321 322 324 327 331 334 337 337 338 335 331 329 328 328 326 324 323 322 321 319 318 316 315 313 311 309 309 309 310 310 309 309 309 309 309 309 310 310 310 310
319 320 320 321 318 318 319 320 320 321 321 322 325 326 328 333 335 335 332 329 327 327 326 323 321 321 320 318 317 315 314 312 310 309 308 307 307 308 308 308 308 308 308 308 308 308 309 309 310
323 323 324 322 319 318 318 319 319 320 321 321 322 324 325 329 332 333 330 327 325 325 325 321 320 319 318 316 314 312 311 309 307 307 306 306 306 307 307 307 307 307 306 307 306 307 308 308 309
327 326 325 324 323 318 319 319 319 319 320 321 322 322 324 327 331 331 328 325 323 323 323 320 319 318 316 314 312 310 308 307 306 305 305 306 305 305 306 306 306 306 306 306 306 306 307 307 307
324 324 324 323 323 320 319 320 320 320 319 319 320 321 322 326 329 329 325 322 320 321 322 319 318 316 315 313 312 310 308 306 305 305 304 304 304 304 305 305 305 305 305 305 305 305 305 307 306
324 325 325 324 323 323 322 322 322 321 321 320 320 321 322 324 328 328 323 320 319 319 320 319 317 316 315 314 313 311 308 306 305 304 303 303 303 302 302 303 304 303 304 304 303 303 304 306 305
324 326 326 326 325 324 323 323 323 322 322 321 320 320 321 323 327 327 322 319 318 318 319 318 317 316 315 314 311 308 306 304 304 304 303 302 301 301 302 301 302 302 302 302 301 301 302 303 303
327 325 325 325 323 325 324 326 324 324 323 322 321 320 320 322 325 326 322 319 318 317 317 317 316 315 314 311 310 308 306 306 306 304 302 301 300 300 300 300 300 300 300 300 299 299 300 300 302
326 325 323 324 324 325 325 325 325 324 323 324 321 320 320 321 324 325 322 319 317 316 316 315 315 314 312 311 310 309 307 307 304 303 302 301 299 298 298 298 298 297 297 297 297 297 298 298 299
322 323 322 322 324 328 326 326 327 325 324 323 321 320 320 320 322 324 322 319 317 315 314 314 313 312 311 310 310 309 307 305 304 303 303 301 299 297 296 296 295 295 295 295 295 295 295 296 296
320 323 327 329 327 329 325 326 326 322 321 321 320 320 320 320 321 323 322 319 316 314 313 312 312 311 310 309 308 307 306 304 304 303 302 300 297 296 294 295 294 293 292 293 293 293 294 294 295
321 323 327 329 330 328 326 326 325 322 320 321 320 320 320 320 320 321 321 318 315 313 311 310 309 308 307 306 305 305 303 303 302 300 299 297 295 293 293 293 292 292 291 292 292 293 292 293 293
321 323 322 323 323 325 324 324 322 321 321 320 321 320 320 319 319 319 318 316 314 311 310 308 307 305 304 304 302 302 301 300 298 297 295 293 292 291 291 292 291 290 290 290 291 291 291 292 291
318 316 322 321 326 325 323 323 323 321 321 321 320 320 319 318 317 317 317 315 313 311 309 308 306 304 303 302 301 300 298 297 295 294 293 292 290 291 291 290 289 289 289 289 289 289 289 290 289
314 317 315 318 323 323 322 321 319 322 320 320 318 317 317 317 317 316 316 314 313 311 309 307 305 303 301 300 299 297 296 295 293 292 292 291 291 290 290 289 288 288 288 288 288 288 288 289 289
314 316 316 321 316 317 321 321 318 316 316 316 316 314 313 313 314 316 316 314 313 311 308 306 304 301 299 298 296 295 294 294 293 292 291 291 290 290 289 289 288 287 287 287 287 287 287 287 287
Wind_Speed
13 10 9 11 7 8 15 5 6 6 5 5 6 2 16 18 13 6 14 10 18 18 15 16 17 16 14 13 11 11 11 11 11 12 13 13 11 9 8 8 7 6 5 4 4 3 2 1 2
10 10 11 8 8 13 10 11 7 7 10 5 5 4 5 12 16 15 12 16 18 15 15 13 16 15 15 15 14 12 12 12 12 13 13 12 10 8 7 6 5 4 3 3 3 3 3 4 3
11 11 10 10 13 14 10 4 8 9 8 12 6 3 7 8 9 6 17 17 17 16 14 13 15 14 13 14 14 14 13 13 13 12 12 11 9 8 7 6 5 4 3 3 3 3 5 5 5
8 9 7 10 18 16 8 3 1 10 9 9 12 10 7 7 4 14 17 17 16 13 12 14 15 14 16 14 13 13 12 11 12 11 10 10 9 9 8 7 6 6 5 5 5 6 7 7 7
13 8 12 18 18 13 2 4 8 13 11 11 10 11 7 6 9 18 18 16 16 16 13 13 15 14 14 13 12 12 11 11 10 10 9 9 8 7 7 7 7 8 8 8 8 9 9 9 9
9 6 12 15 17 8 4 5 10 12 10 11 6 12 7 13 15 16 17 17 16 16 14 15 16 15 15 14 13 12 11 10 10 9 8 7 6 7 6 6 7 8 10 10 11 12 12 12 13
13 12 16 20 17 8 9 6 12 13 11 11 6 12 8 14 16 16 17 16 16 16 15 14 14 16 15 15 14 13 12 11 9 8 9 8 8 6 6 6 7 9 10 10 11 12 13 15 16
8 11 20 19 13 15 8 6 13 13 15 8 6 6 8 17 19 18 18 17 16 15 16 15 15 15 14 13 12 11 10 9 10 9 7 4 3 2 3 3 4 4 5 6 7 8 9 11 15
10 9 14 17 11 10 9 10 10 14 7 9 6 10 11 27 22 20 19 18 17 15 15 17 17 15 15 13 12 13 12 13 11 9 8 5 6 5 4 3 2 2 4 4 5 6 8 11 14
11 12 17 10 9 8 4 11 11 11 13 10 10 6 20 24 23 22 21 20 19 18 16 14 15 15 14 11 11 10 9 8 7 6 5 4 5 3 2 4 3 4 5 7 9 11 12 11 11
13 16 17 7 6 8 13 8 15 14 17 15 16 14 16 22 21 20 20 20 20 19 17 15 16 14 12 11 9 7 7 7 7 7 5 4 3 2 1 2 4 4 8 6 10 10 10 11 11
11 15 13 12 2 10 12 13 10 13 17 10 16 18 17 20 19 21 21 20 21 19 17 16 14 13 12 11 9 9 8 7 7 6 6 3 2 2 2 2 4 5 7 8 8 9 11 11 12
15 16 12 10 10 12 13 12 12 14 13 3 6 16 19 18 19 21 20 20 20 20 18 16 15 13 12 11 11 10 9 8 8 7 8 6 4 4 3 4 4 5 6 7 9 10 11 12 12
12 10 13 14 15 14 14 15 16 14 14 8 13 16 18 18 19 20 20 21 21 19 18 16 15 14 13 12 12 12 10 9 8 8 9 8 7 6 5 5 5 6 8 9 9 10 12 13 13
13 16 16 18 18 17 12 18 21 17 17 15 15 16 18 18 21 21 22 21 21 20 19 17 16 15 15 15 14 12 10 9 9 8 10 10 9 8 7 6 7 8 8 10 11 12 12 12 13
16 16 16 11 6 14 13 18 17 21 21 18 19 17 17 19 19 22 20 20 18 18 18 17 16 16 14 14 13 12 11 9 8 8 9 10 10 9 7 6 7 9 10 11 12 12 12 12 14
16 15 18 11 14 6 12 13 16 10 21 18 20 19 18 17 17 20 21 20 20 19 19 17 17 16 15 14 13 12 11 9 9 8 8 9 10 9 7 7 8 9 9 9 12 13 11 13 13
18 15 14 16 8 11 15 16 16 8 12 15 18 19 19 18 18 20 20 19 18 18 19 18 18 18 16 15 14 12 11 11 9 9 8 8 8 8 7 7 8 9 9 10 12 11 13 13 15
18 16 18 19 18 5 14 19 17 16 17 17 17 19 18 19 18 22 19 18 18 19 20 20 20 19 18 15 14 13 11 11 9 9 9 8 8 8 8 7 8 9 9 11 13 14 13 11 18
17 18 19 20 20 18 17 21 20 18 20 20 20 19 19 19 19 21 23 23 22 21 20 20 19 18 15 14 12 11 12 10 10 9 9 8 9 10 8 7 7 8 6 9 11 12 13 9 13
19 21 20 21 20 21 19 26 25 22 27 23 21 21 19 19 21 21 21 24 22 22 22 21 20 19 16 13 12 13 11 11 10 9 8 8 8 8 7 7 8 8 8 8 10 11 12 11 11
22 18 19 16 15 15 18 19 19 17 13 24 22 20 20 19 19 21 20 23 22 21 20 20 20 19 16 15 14 15 13 12 10 9 8 8 8 8 7 7 8 8 7 8 9 10 9 10 10
23 13 13 16 16 19 21 14 20 17 14 19 15 16 18 18 18 21 20 23 22 20 19 19 19 19 16 16 14 15 12 13 11 10 10 8 7 7 7 8 8 8 7 7 8 9 10 9 9
16 11 14 13 12 16 19 18 27 9 6 8 8 10 9 12 12 18 23 20 21 21 20 20 20 19 16 15 14 14 12 14 13 12 10 8 6 5 6 7 7 7 7 7 7 7 9 10 9
16 14 10 12 10 17 12 15 17 10 8 9 6 6 4 6 8 10 16 17 19 20 19 18 18 17 16 15 14 12 13 13 13 12 9 8 6 5 6 6 7 5 6 6 5 6 7 7 7
14 19 10 11 14 15 14 20 4 9 8 8 5 3 1 3 2 6 11 15 17 17 18 18 18 17 17 16 15 14 14 14 12 9 9 8 7 5 6 6 5 5 5 6 6 7 6 6 6
14 17 18 16 15 8 8 18 3 10 9 7 8 5 4 2 4 5 9 15 16 18 18 18 18 17 16 16 16 15 13 13 12 12 10 8 9 7 5 6 5 4 5 5 5 6 5 4 5
18 3 10 7 6 12 14 18 4 6 4 6 7 7 5 2 3 5 9 14 16 18 19 18 17 17 17 16 15 14 13 12 12 12 11 9 8 7 6 6 4 4 4 5 5 3 5 5 6
11 16 11 8 13 9 11 5 6 9 7 8 8 6 6 3 0 4 7 11 14 17 17 15 16 17 16 16 15 14 13 13 13 12 11 8 8 6 5 5 5 5 3 5 6 4 4 4 5
11 13 18 11 14 13 13 15 9 5 5 6 6 6 7 5 4 2 6 11 15 16 16 16 15 15 14 14 14 13 13 12 12 11 10 9 8 6 6 6 5 3 4 5 5 5 4 4 6
Wind_Direction
308 298 273 267 244 230 267 215 326 162 201 38 77 353 79 42 14 58 134 129 127 138 145 147 155 159 153 144 136 130 131 139 145 147 148 151 154 160 164 165 167 171 179 189 186 185 215 258 303
298 285 251 273 254 261 265 93 198 176 82 143 112 137 124 69 74 106 121 142 143 142 142 145 156 157 158 154 147 138 136 142 146 147 147 150 153 160 166 169 176 184 200 204 209 219 253 271 272
291 271 269 238 242 266 308 112 196 95 154 165 125 330 103 100 66 84 124 138 142 143 141 152 155 157 153 154 153 149 148 151 150 153 154 156 159 166 172 178 186 201 218 227 243 257 265 272 271
274 224 241 256 267 270 280 92 187 154 178 194 170 115 88 55 72 134 137 141 140 134 140 144 147 152 158 158 157 151 154 154 151 154 158 157 164 171 181 187 196 208 215 236 245 254 268 263 257
236 262 264 256 264 270 300 273 202 179 179 198 201 135 101 111 126 137 140 138 136 133 136 133 144 146 146 151 153 152 156 157 158 161 163 165 171 179 194 206 213 218 226 237 241 252 262 268 269
256 242 270 264 268 199 215 232 229 201 167 194 200 126 111 147 146 141 141 141 139 135 132 127 134 139 142 144 146 151 158 158 157 159 163 168 174 188 199 212 227 236 240 242 246 249 252 258 264
252 271 265 280 290 281 208 228 237 201 186 172 213 167 113 168 149 150 143 142 142 139 136 133 129 139 143 144 148 150 153 151 154 157 168 169 174 182 198 206 229 243 251 251 253 257 261 262 263
281 272 268 270 266 272 134 214 250 223 197 152 189 171 167 163 158 151 147 145 145 144 149 139 139 139 133 140 150 150 148 141 136 134 138 143 173 183 143 61 221 232 252 262 268 272 272 277 277
256 258 260 267 262 265 129 228 205 259 176 167 192 358 114 151 159 157 152 151 149 146 143 153 149 146 133 123 109 101 96 88 84 94 99 95 116 102 86 204 176 242 280 285 289 292 297 303 298
234 251 263 10 348 300 293 246 194 228 217 194 179 127 126 156 166 168 167 160 161 157 153 148 150 143 136 133 124 119 111 108 105 97 97 118 99 123 103 4 319 318 296 308 306 312 318 319 304
254 251 287 320 282 281 278 223 260 213 230 199 199 165 161 170 177 178 175 167 164 159 156 151 151 148 144 145 139 131 125 120 99 95 104 109 128 92 57 346 346 341 335 325 321 316 313 317 312
263 260 274 275 228 262 255 266 219 236 246 212 209 165 174 179 186 184 183 169 159 160 157 158 157 153 156 150 145 135 125 121 113 95 89 103 123 67 39 352 337 338 334 331 326 317 317 317 313
255 261 267 264 256 255 266 261 253 234 244 224 254 154 182 189 192 192 189 162 164 160 157 155 155 152 148 140 132 125 117 117 110 91 72 80 83 62 50 28 17 5 354 347 341 332 329 324 318
312 288 279 264 256 249 247 247 244 245 238 216 229 188 194 197 196 193 185 174 171 162 159 155 151 148 147 140 131 124 121 113 105 92 80 67 67 53 40 30 16 5 354 344 339 330 327 320 316
276 271 263 248 238 241 241 247 245 232 222 221 214 204 202 200 203 198 189 179 179 169 161 157 151 148 143 135 128 125 122 117 108 94 80 72 64 49 46 32 20 6 358 353 347 341 333 325 317
257 257 268 253 211 227 237 253 239 224 241 216 218 218 212 205 209 198 185 185 180 171 164 159 154 149 144 139 131 127 120 114 105 92 78 72 66 58 49 40 25 11 4 356 350 343 335 329 323
231 259 252 222 179 243 207 256 249 280 203 219 234 224 217 214 210 197 189 189 185 174 167 162 156 152 146 137 129 125 120 117 108 101 91 80 67 59 56 42 22 22 13 4 355 342 339 332 326
256 244 223 251 220 212 239 242 256 256 263 224 238 242 224 210 209 195 187 192 188 178 172 166 160 157 151 143 138 136 134 126 122 113 100 91 74 65 64 39 29 26 14 7 358 353 346 337 333
273 284 285 285 284 255 265 264 259 257 213 233 237 238 229 215 203 190 187 188 189 180 178 173 167 165 159 158 155 151 143 135 124 113 103 93 87 74 64 46 37 38 24 11 7 359 354 356 349
264 262 261 270 273 272 263 260 261 256 248 233 231 232 232 216 197 181 188 190 193 185 183 178 174 172 173 170 167 157 147 141 135 122 103 87 74 67 58 62 41 33 34 26 19 12 5 7 8
251 257 265 275 288 285 268 268 259 249 247 242 224 236 226 223 202 181 190 195 194 190 187 183 181 180 178 167 153 146 141 141 140 134 112 92 83 76 72 65 62 39 30 23 25 20 17 358 15
253 251 262 257 269 269 277 285 276 280 248 218 228 216 232 215 206 184 190 194 197 195 191 189 184 182 177 171 168 168 165 165 156 150 136 115 98 85 76 67 66 60 42 28 17 19 16 17 14
258 287 285 265 263 275 262 266 270 264 250 240 201 227 222 225 200 190 187 192 194 192 192 197 187 184 180 183 180 180 183 141 148 146 139 125 104 87 72 66 60 56 49 33 24 25 23 21 12
273 258 246 253 255 257 259 252 276 296 329 311 193 168 218 227 215 190 176 189 192 190 191 196 191 188 184 186 186 186 172 163 161 158 152 146 133 111 86 74 64 55 53 36 28 31 27 26 20
240 221 242 229 217 244 261 248 246 141 102 70 101 156 178 222 222 193 165 189 193 187 191 193 196 188 182 181 178 176 167 168 166 162 155 150 141 120 88 87 77 64 51 45 44 40 35 33 30
218 222 232 251 254 273 291 241 253 79 71 80 63 26 112 125 189 205 185 190 192 185 188 194 193 181 178 174 166 162 162 159 152 147 147 142 136 120 107 91 83 66 54 51 36 29 32 20 21
249 219 250 280 282 287 262 283 241 110 96 67 64 70 75 118 154 194 186 187 190 188 191 195 189 176 172 168 162 161 159 154 151 142 137 137 126 122 113 108 93 71 62 54 58 37 18 21 17
246 1 235 205 236 236 254 257 317 48 91 120 92 91 101 139 192 202 203 186 191 191 189 193 184 178 174 166 162 161 155 148 145 143 138 133 133 126 136 112 103 92 70 64 64 51 21 21 16
205 238 241 268 228 270 276 278 38 64 44 76 87 85 77 77 95 206 209 191 194 183 185 188 186 177 166 165 162 157 151 150 149 142 131 141 129 153 129 120 109 82 80 69 68 57 39 37 30
288 290 232 237 243 246 253 268 96 80 76 37 38 27 3 20 35 192 194 187 185 182 181 186 183 167 173 169 156 153 151 156 150 139 143 141 145 152 140 128 118 134 90 77 78 67 48 43 44